{"data":{"norad_id":48791,"intl_designator":"2021-045AA","name":"ONEWEB-0212","alt_names":[],"object_type":"PAYLOAD","status":"ACTIVE","operator":null,"country":"UK","launch_date":"2021-05-28","launch_site_code":"VOSTO","launch_vehicle":null,"mission":null,"orbit_class":"UNKNOWN","rcs_meters":null,"size_class":null,"mass_kg":null,"dimensions":null,"purposes":["comms"],"wikipedia_slug":null,"has_3d_model":false,"image_url":null,"decayed_at":null,"tle_current":{"epoch":"2026-09-20T04:55:55.002144Z","epoch_age_seconds":47488,"freshness":"FRESH","line1":"1 48791U 21045AA  26263.20549771 -.00000056  00000+0 -18330-3 0  9995","line2":"2 48791  87.8993 240.2475 0002124  82.7573 277.3799 13.15550917256925","mean_motion":13.15550917,"eccentricity":0.0002124,"inclination_deg":87.8993,"raan_deg":240.2475,"arg_perigee_deg":82.7573,"mean_anomaly_deg":277.3799,"bstar":-0.0001833,"rev_number":25692,"period_min":109.45984540711,"perigee_km":1200.1517048999,"apogee_km":1203.3716458572,"semimajor_km":7579.8986753786,"source":"CELESTRAK","updated_at":"2026-09-20T09:00:44.620291Z"}}}